Homer, AK

2:38 AM AKDT on June 24, 2017 (GMT -0800)
Homer

Weather History for PAHO - January, 2014

Change the Weather History Date:

Saturday, January 25, 2014

  Actual Average Record
Temperature  
Mean Temperature 46 °F -  
Max Temperature 55 °F 28 °F 55 °F (2014)
Min Temperature 37 °F 15 °F -16 °F (1947)
Degree Days  
Heating Degree Days 19    
Moisture  
Dew Point 32 °F    
Average Humidity 58    
Maximum Humidity 86    
Minimum Humidity 38    
Precipitation  
Precipitation 0.00 in - - ()
Sea Level Pressure  
Sea Level Pressure 29.94 in    
Wind  
Wind Speed 7 mph (ENE)    
Max Wind Speed 29 mph    
Max Gust Speed 44 mph    
Visibility 10 miles    
Events Rain    
Averages and records for this station are not official NWS values.
T = Trace of Precipitation, MM = Missing Value Source: NWS Daily Summary

Daily Weather History Graph

Daily Weather History Graph

Search for Another Location

Airport or City:

Trip Planner

Search our weather history database for the weather conditions in past years. The results will help you decide how hot, cold, wet, or windy it might be!

Date:

Astronomy

Jan. 25, 2014 Rise Set
Actual Time 9:32 AM AKST 5:04 PM AKST
Civil Twilight 8:43 AM AKST 5:53 PM AKST
Nautical Twilight 7:52 AM AKST 6:45 PM AKST
Astronomical Twilight 7:03 AM AKST 7:33 PM AKST
Moon 4:11 AM AKST (1/25) 12:13 PM AKST (1/25)
Length of Visible Light 9h 09m
Length of Day
7h 32m
Waning Crescent, 32% of the Moon is Illuminated
Jan 25
Waning Crescent
Jan 30
New
Feb 6
First Quarter
Feb 14
Full
Feb 22
Last Quarter

Hourly Weather History & Observations

Time (AKST) Temp. Windchill Dew Point Humidity Pressure Visibility Wind Dir Wind Speed Gust Speed Precip Events Conditions
12:53 AM 41.0 °F - 36.0 °F 82% 30.03 in 10.0 mi Calm Calm - 0.00 in Rain Light Rain
1:53 AM 41.0 °F - 37.0 °F 86% 30.02 in 10.0 mi Calm Calm - 0.00 in   Overcast
3:53 AM 39.0 °F 36.8 °F 33.1 °F 79% 29.99 in 10.0 mi WNW 3.5 mph - N/A   Clear
4:53 AM 37.9 °F 35.5 °F 34.0 °F 86% 29.99 in 10.0 mi North 3.5 mph - N/A   Partly Cloudy
5:53 AM 43.0 °F 40.3 °F 34.0 °F 71% 29.99 in 10.0 mi Variable 4.6 mph - N/A   Clear
6:53 AM 39.0 °F 35.7 °F 33.1 °F 79% 29.99 in 10.0 mi North 4.6 mph - N/A   Clear
7:53 AM 37.0 °F - 30.9 °F 79% 30.00 in 10.0 mi Calm Calm - N/A   Clear
8:53 AM 46.9 °F - 33.1 °F 59% 30.00 in 10.0 mi East 9.2 mph 19.6 mph N/A   Clear
9:53 AM 45.0 °F 40.1 °F 33.1 °F 63% 30.00 in 10.0 mi NE 9.2 mph - N/A   Clear
10:53 AM 48.0 °F - 34.0 °F 58% 29.99 in 10.0 mi Calm Calm - N/A   Clear
11:53 AM 50.0 °F - 34.0 °F 54% 29.98 in 10.0 mi ENE 3.5 mph - N/A   Clear
12:53 PM 51.1 °F - 34.0 °F 52% 29.98 in 10.0 mi NNE 4.6 mph - N/A   Clear
1:53 PM 50.0 °F - 35.1 °F 57% 29.96 in 10.0 mi Calm Calm - N/A   Scattered Clouds
2:53 PM 55.0 °F - 32.0 °F 42% 29.92 in 10.0 mi East 18.4 mph 28.8 mph N/A   Scattered Clouds
3:53 PM 53.1 °F - 32.0 °F 45% 29.90 in 10.0 mi East 20.7 mph 31.1 mph N/A   Scattered Clouds
4:53 PM 53.1 °F - 30.9 °F 43% 29.88 in 10.0 mi ENE 15.0 mph 25.3 mph N/A   Scattered Clouds
5:53 PM 51.1 °F - 30.0 °F 44% 29.88 in 10.0 mi East 17.3 mph 27.6 mph N/A   Scattered Clouds
6:53 PM 52.0 °F - 30.0 °F 43% 29.86 in 10.0 mi East 21.9 mph 26.5 mph N/A   Mostly Cloudy
7:53 PM 52.0 °F - 30.0 °F 43% 29.86 in 10.0 mi East 17.3 mph 34.5 mph N/A   Clear
8:53 PM 53.1 °F - 28.9 °F 40% 29.85 in 10.0 mi East 28.8 mph 39.1 mph N/A   Clear
9:53 PM 54.0 °F - 28.9 °F 38% 29.83 in 10.0 mi East 26.5 mph 39.1 mph N/A   Clear
10:53 PM 52.0 °F - 30.0 °F 43% 29.82 in 10.0 mi East 16.1 mph - N/A   Clear
11:53 PM 54.0 °F - 28.9 °F 38% 29.79 in 10.0 mi East 25.3 mph 43.7 mph N/A   Clear